Theta_e
304 305 307 312 311 311 311 312 312 313 312 312 312 313 314 314 314 315 325 332 322 317 319 324 324 322 323 320 316 327 318 323 323 315 311 311 310 315 313 316 316 313 313 310 304 301 304 321 318 313 320 333 327 328
304 305 307 311 311 311 311 311 312 312 312 311 312 313 314 313 313 311 321 325 324 318 320 328 330 332 330 328 326 332 327 330 329 320 316 316 313 317 314 306 313 309 316 318 317 315 325 323 322 327 338 331 329 332
304 305 308 310 310 310 310 311 311 312 312 311 312 312 313 313 313 312 321 325 319 313 314 316 318 328 331 330 335 326 332 335 336 341 327 324 321 319 312 308 310 318 323 317 319 323 324 324 327 329 331 332 333 331
304 305 310 310 310 310 310 310 311 312 311 311 312 312 312 312 313 311 319 323 322 319 309 313 328 328 331 332 332 333 332 339 341 333 326 322 318 326 316 319 316 318 320 314 317 320 326 322 314 325 333 333 330 328
303 307 310 310 310 310 310 310 310 311 311 311 312 312 312 312 312 316 322 322 323 318 313 316 324 325 329 330 328 330 332 334 325 323 322 320 322 325 321 320 315 320 324 315 317 328 330 326 321 326 330 326 326 326
304 309 309 309 309 309 309 310 310 311 310 310 311 311 312 312 311 322 316 321 320 320 316 313 325 323 326 328 326 327 327 327 323 320 319 323 333 320 314 306 314 318 321 317 317 332 334 331 330 326 323 324 324 325
308 309 309 309 309 309 309 310 310 310 309 310 310 311 311 310 315 317 311 315 312 325 318 314 314 322 325 324 323 323 330 321 320 320 318 318 323 324 317 310 318 321 317 317 319 325 326 325 321 324 325 325 327 330
309 308 309 309 309 309 309 310 311 309 309 309 310 311 310 307 307 313 319 312 313 321 319 313 314 316 324 317 314 319 316 319 320 319 320 318 320 320 313 322 323 322 318 317 320 328 330 327 326 325 327 328 328 328
308 308 309 309 309 309 310 310 310 309 309 309 310 311 315 314 316 319 310 311 325 321 312 311 310 308 321 315 317 319 319 311 319 315 315 317 314 311 319 322 321 323 324 324 325 325 328 325 324 325 326 327 327 328
308 309 309 309 309 309 309 309 309 309 309 310 312 312 310 316 310 313 316 316 316 317 316 311 315 312 316 313 314 313 315 310 307 312 317 312 311 325 322 323 326 326 325 325 322 321 322 322 324 324 326 328 329 329
308 309 309 309 309 309 309 309 308 308 307 313 313 313 318 308 315 313 309 308 310 307 310 311 312 313 319 314 311 315 311 311 304 308 310 308 308 320 323 323 324 324 324 324 328 329 327 325 319 321 328 329 329 329
308 309 309 309 308 308 308 308 308 309 315 312 316 316 316 312 310 305 304 307 306 304 310 308 311 315 318 321 315 314 308 309 302 314 308 304 315 321 321 320 321 324 326 325 326 325 326 326 324 328 329 329 329 329
308 308 308 307 307 308 308 308 308 308 311 318 314 308 309 307 303 299 298 302 303 309 311 312 310 314 316 316 312 311 304 303 312 306 303 310 320 321 322 321 321 326 327 326 324 325 325 325 329 330 328 328 327 326
307 307 307 307 307 307 308 308 308 311 316 309 305 293 301 299 301 303 304 306 310 311 312 311 310 310 312 310 310 304 307 308 302 299 303 314 320 321 322 322 321 320 322 322 325 325 324 324 328 328 326 327 325 322
306 306 306 306 307 307 308 308 309 316 314 306 305 293 300 305 307 310 312 312 314 315 313 311 311 310 308 307 307 305 302 299 301 301 311 319 324 325 325 325 323 320 321 321 322 323 326 328 327 326 327 326 324 323
306 306 305 306 307 307 307 309 315 316 311 308 306 303 304 305 306 308 308 311 315 314 315 312 307 305 304 305 303 301 299 298 304 312 316 323 325 325 327 326 325 324 324 324 323 325 327 327 327 327 326 325 322 320
307 305 305 306 307 308 309 313 312 307 307 304 303 310 307 306 306 308 311 312 316 311 306 307 302 301 307 302 301 304 302 307 313 316 318 325 325 325 325 327 323 324 325 326 326 326 327 329 329 326 324 324 323 323
305 305 306 306 309 310 312 313 308 306 301 306 303 307 310 311 311 311 312 314 312 310 310 306 310 303 301 299 301 306 312 315 317 315 319 322 326 326 323 326 325 325 326 327 326 327 330 330 327 324 328 326 322 322
305 306 306 306 309 309 306 307 310 302 302 305 308 308 309 311 313 314 312 314 315 316 314 311 304 303 303 307 309 312 314 314 314 317 322 326 325 325 327 326 326 327 327 327 329 326 328 331 327 326 323 321 318 318
303 303 304 306 309 304 301 303 310 305 301 304 306 304 307 307 310 311 311 312 311 309 305 304 305 307 311 314 317 317 317 317 314 311 312 317 320 323 327 326 326 329 327 328 328 312 327 326 327 326 324 322 320 319
304 304 306 307 304 304 302 302 303 304 304 302 305 305 305 308 307 307 307 310 307 306 304 307 308 314 318 317 317 317 319 318 316 316 313 312 314 314 315 325 326 321 317 322 322 323 316 325 325 325 324 322 322 321
303 303 304 304 298 299 300 303 301 304 303 304 303 304 303 301 303 304 309 305 304 306 308 310 312 314 313 314 315 318 318 318 319 315 306 309 313 313 313 317 317 314 311 315 321 315 319 317 319 323 320 322 316 320
302 303 301 300 293 293 292 305 298 300 297 298 301 299 300 301 304 308 303 304 306 309 310 311 313 314 314 314 315 315 315 315 314 313 314 313 314 315 315 315 315 315 314 318 320 318 321 311 318 320 319 320 321 318
300 299 293 292 293 291 298 295 300 298 299 297 296 295 298 300 305 301 298 301 305 309 309 311 311 309 310 312 309 310 311 312 312 313 313 312 312 313 315 314 315 316 318 317 317 318 320 322 316 319 315 315 319 318
291 291 292 285 294 291 291 292 293 294 291 294 293 294 296 300 296 296 297 301 304 305 306 308 307 307 305 305 306 307 313 310 309 309 311 312 311 312 313 314 315 317 318 316 316 316 317 317 316 316 316 317 314 313
285 291 289 290 291 290 290 288 290 291 292 292 293 296 298 295 291 291 295 299 302 304 305 304 304 303 303 305 304 305 306 309 309 307 308 309 309 307 307 307 308 310 314 314 314 313 313 314 314 314 315 311 299 313
286 289 295 299 295 295 292 294 294 292 290 290 292 293 292 288 289 294 299 301 302 304 306 306 306 305 305 306 308 308 309 311 312 310 312 313 312 312 309 307 307 310 313 311 311 311 312 314 314 314 313 313 314 313
295 295 290 294 294 296 291 291 291 290 292 295 294 290 289 290 292 299 303 308 309 309 308 308 309 308 307 308 309 311 311 312 312 313 311 312 314 314 316 315 314 298 313 314 312 313 312 311 311 311 311 310 310 311
294 297 296 292 293 294 293 292 292 296 298 296 293 292 294 299 303 303 305 307 308 306 304 303 305 307 307 308 311 310 309 308 306 305 304 304 306 308 311 312 313 314 314 314 294 299 301 308 309 309 309 309 310 311
293 298 293 292 291 291 294 297 296 299 300 299 300 299 298 300 303 305 305 304 303 303 304 305 306 305 304 304 304 306 308 308 308 306 304 304 305 309 310 309 310 311 312 313 312 312 292 303 304 309 308 309 310 309
298 297 294 293 292 295 298 301 302 301 300 299 300 298 298 299 302 305 306 307 306 305 305 304 305 305 305 304 305 304 303 306 308 310 309 308 309 309 311 312 312 312 311 310 310 310 309 308 309 308 308 307 307 304
297 295 294 292 294 298 300 298 297 297 298 298 298 300 300 299 298 302 306 306 305 303 300 302 305 306 309 310 309 309 294 309 310 310 310 310 310 310 310 311 313 312 310 310 310 309 308 308 308 307 307 307 307 307
297 296 296 295 295 295 297 297 296 295 296 296 296 298 298 298 296 302 307 311 308 307 307 309 309 309 309 309 308 308 299 309 304 291 290 289 287 294 305 309 309 309 308 307 307 307 307 307 307 307 307 305 306 307
Wind_Speed
13 12 12 12 11 11 10 9 8 7 7 4 2 5 7 7 2 3 4 2 5 8 12 5 6 7 7 4 8 5 5 4 5 9 10 11 11 5 8 12 10 9 8 3 5 7 9 6 5 9 10 10 2 5
13 14 12 12 12 11 11 10 8 7 6 4 2 5 7 6 3 2 6 5 3 5 8 8 10 7 6 7 5 6 5 3 4 5 8 9 9 2 3 3 18 14 11 13 7 4 9 7 17 9 7 3 4 7
15 15 13 13 12 12 11 10 9 7 6 4 3 4 7 6 4 3 7 4 3 6 9 11 10 11 4 2 6 5 4 6 1 4 6 6 7 4 3 4 11 17 6 3 15 8 13 16 17 18 9 5 8 5
14 17 14 15 14 13 12 10 9 6 6 4 3 5 7 8 7 5 7 3 4 6 7 7 7 7 6 2 3 1 4 6 6 6 8 8 10 6 7 5 11 5 9 8 10 10 11 20 28 35 13 7 10 7
16 16 20 18 15 14 12 10 8 6 5 3 4 6 7 9 10 6 6 1 2 5 5 3 9 11 8 5 5 3 3 5 7 8 7 8 10 7 8 9 4 13 5 3 5 7 6 10 17 32 8 9 11 12
18 20 20 19 16 14 12 10 8 6 4 3 4 6 7 7 8 6 5 3 5 3 5 6 4 10 10 8 7 5 5 5 7 7 7 6 4 8 4 2 12 24 18 21 16 3 9 6 10 10 10 9 10 9
18 22 21 19 17 14 11 9 7 5 3 4 6 7 7 5 3 5 5 4 4 4 4 5 6 10 11 9 8 7 7 5 8 7 8 10 3 5 7 7 16 12 16 12 11 23 3 8 5 6 10 10 11 11
23 22 21 19 16 13 11 9 7 4 3 5 7 8 4 4 1 4 3 1 3 5 4 5 2 5 7 7 8 7 8 7 6 6 8 7 4 5 6 10 13 2 20 21 31 18 3 8 6 3 9 8 9 11
23 22 20 18 15 12 10 8 6 4 5 6 6 5 2 3 5 5 1 1 3 4 4 5 6 2 7 8 7 5 5 8 6 9 10 9 8 9 5 6 13 9 8 3 9 2 8 7 9 7 9 9 9 10
22 21 19 17 14 11 9 7 5 5 6 6 4 5 5 5 6 4 2 4 5 6 5 6 9 4 6 8 4 4 5 7 7 8 8 10 9 8 10 7 9 8 9 12 8 5 8 14 7 4 8 12 8 11
22 22 19 16 13 10 8 6 5 6 4 4 5 0 5 2 4 4 5 5 6 5 5 7 9 3 2 4 3 3 2 4 4 5 4 4 9 8 9 6 4 6 9 11 11 4 13 13 11 3 2 11 11 12
21 21 18 15 12 8 5 4 4 3 1 1 3 1 3 4 5 6 5 5 4 8 7 10 6 1 1 3 2 3 5 3 4 2 3 5 7 4 5 6 7 6 8 12 11 3 8 24 20 14 11 11 11 12
20 19 16 13 11 7 3 1 2 7 9 4 3 6 3 4 2 6 8 7 6 4 3 3 4 3 2 3 3 3 5 4 2 3 5 5 6 5 4 5 3 3 7 6 3 9 9 8 4 14 13 12 13 11
19 18 15 12 10 6 3 1 4 4 3 4 5 4 4 5 7 5 8 9 4 5 6 6 7 4 5 5 4 4 4 3 4 5 3 7 6 4 4 6 3 3 2 1 4 5 9 10 14 13 12 11 11 10
20 18 15 9 6 3 1 3 4 3 4 4 4 4 8 6 8 5 8 6 4 4 3 3 2 5 4 3 4 3 3 4 5 8 9 6 4 5 5 5 8 2 0 1 1 4 8 10 10 10 10 9 10 9
18 13 6 4 5 2 3 4 4 2 2 2 3 4 8 6 4 1 3 7 1 3 1 3 4 3 6 5 6 6 5 6 1 9 8 6 4 4 4 5 6 8 5 3 3 5 7 9 10 10 10 9 9 9
10 5 2 4 4 3 4 3 4 0 2 3 4 4 5 4 7 7 3 8 0 4 6 4 5 5 3 5 8 5 7 2 8 9 6 6 4 3 4 5 2 2 2 0 1 3 6 8 10 10 10 9 8 7
6 4 4 4 1 3 3 5 1 2 4 1 3 2 6 7 5 5 5 2 3 6 5 1 4 4 4 5 7 4 8 3 8 8 9 3 3 4 4 4 6 2 1 1 2 3 6 7 9 8 8 8 8 7
9 7 8 8 4 3 3 3 4 2 1 3 4 4 2 2 6 6 4 0 4 4 3 2 3 5 5 2 6 8 9 8 5 3 7 5 3 1 3 2 4 3 2 2 3 4 5 7 8 7 8 9 8 8
11 15 13 13 5 4 4 2 3 3 2 0 2 3 2 3 4 4 3 2 3 4 4 3 5 3 7 7 6 7 5 6 7 5 2 5 4 2 3 3 4 1 4 4 5 4 6 7 7 7 8 9 9 9
9 6 8 7 5 6 2 3 0 4 2 3 5 4 2 1 3 5 5 4 4 5 5 5 7 7 8 5 6 4 4 5 5 7 7 7 7 7 9 5 8 11 12 10 9 10 8 8 8 7 8 9 9 8
4 3 4 5 5 5 2 2 3 2 3 2 1 3 3 5 5 5 3 4 6 6 6 4 4 4 6 4 5 5 5 7 5 6 5 4 6 7 8 4 5 6 10 16 4 5 11 8 11 13 5 12 7 6
3 4 7 5 3 3 4 1 2 2 4 4 2 3 4 3 3 2 2 4 5 5 5 3 2 3 6 5 3 3 5 6 6 7 7 7 6 7 8 8 8 4 8 10 5 7 9 8 8 7 9 10 14 4
2 3 3 3 4 2 5 2 2 2 2 4 4 4 5 4 2 3 6 8 7 4 5 4 3 5 6 8 8 8 8 7 7 7 8 8 8 8 9 8 8 8 8 8 8 7 1 10 11 8 8 15 14 8
4 3 4 2 2 5 5 7 4 5 4 5 6 4 3 4 5 7 7 8 9 8 8 4 5 6 7 7 7 7 6 6 7 8 7 8 8 8 8 9 8 9 9 9 9 9 8 8 10 10 10 7 7 10
2 4 3 3 4 4 4 6 8 7 4 7 6 3 3 3 4 5 5 8 6 3 0 3 6 6 6 7 7 6 6 5 6 7 8 8 9 10 11 11 10 9 8 10 10 12 13 12 12 12 9 8 8 12
2 4 3 0 4 1 3 3 4 5 5 6 4 5 4 5 5 4 3 4 4 3 4 4 6 6 6 7 8 8 6 4 5 7 8 9 10 10 10 11 13 11 11 14 13 14 15 15 14 12 11 10 12 13
2 4 5 4 4 1 2 2 5 5 5 4 3 7 4 5 3 2 2 5 4 3 3 5 6 7 8 8 8 6 7 6 6 7 9 8 8 7 5 7 6 7 8 11 13 13 12 13 13 12 13 13 12 12
3 2 4 4 2 2 3 4 4 3 3 4 6 8 9 4 3 5 3 2 2 3 5 7 7 7 8 7 6 7 8 8 11 14 14 10 9 9 7 5 6 5 6 5 5 9 8 11 13 11 13 11 10 10
3 5 3 3 6 6 6 5 6 6 6 7 7 7 8 8 8 7 7 7 7 7 7 8 7 9 9 10 10 10 8 7 7 10 10 10 10 9 11 9 7 8 8 5 7 9 4 6 8 10 9 9 11 10
3 2 5 5 6 6 7 7 7 8 8 7 8 9 9 8 8 7 7 7 8 9 7 8 9 9 9 10 9 10 11 11 13 15 11 9 10 10 10 10 10 9 9 11 12 12 12 10 10 11 14 15 14 11
3 6 7 10 8 7 7 7 8 8 10 10 9 9 10 10 10 9 7 7 8 9 9 9 9 7 7 8 8 8 7 8 9 10 13 9 10 11 12 11 10 11 13 14 13 13 13 10 14 13 13 17 10 6
4 5 7 5 6 10 9 9 10 11 9 10 11 11 11 11 11 7 6 3 5 5 6 4 5 5 7 8 8 8 8 8 9 5 7 8 7 6 7 9 10 12 16 15 15 16 18 12 4 9 4 6 16 10
Wind_Direction
295 290 284 210 193 190 198 202 203 218 240 248 307 330 326 324 267 245 319 141 266 284 291 294 346 311 326 281 264 18 187 166 232 230 257 255 263 295 310 342 345 236 252 189 107 248 251 13 315 114 224 268 64 57
283 282 273 205 187 187 193 196 198 211 238 250 319 336 334 330 325 248 262 185 221 255 343 348 332 5 354 354 335 306 322 314 6 279 223 263 279 23 352 345 2 333 27 335 316 266 201 205 213 226 243 276 42 66
272 284 248 191 182 183 188 190 194 204 232 255 319 341 340 342 332 270 302 72 214 260 262 248 227 220 236 277 47 299 37 354 7 337 315 307 312 129 141 198 178 248 70 351 330 109 182 201 227 242 164 122 101 92
255 277 221 189 179 179 183 188 194 199 229 258 323 349 346 347 342 338 268 61 288 287 252 249 131 139 173 141 235 323 325 323 286 278 281 278 284 331 303 322 226 253 138 182 231 288 317 42 44 320 74 123 119 106
269 243 198 179 174 174 178 186 194 196 229 273 336 345 345 348 341 294 257 222 284 304 320 231 179 195 164 195 236 243 308 316 299 276 254 265 276 349 4 341 334 313 20 303 344 15 28 159 161 216 105 79 72 61
274 193 180 169 166 167 173 182 192 197 231 295 329 335 338 344 353 265 201 160 17 294 281 247 149 153 182 195 231 229 273 255 271 279 284 280 127 109 60 317 308 303 41 40 357 46 76 64 91 99 103 100 104 101
203 174 170 161 158 163 169 180 192 199 247 303 323 324 330 347 269 292 9 35 352 291 247 255 167 174 196 204 223 234 223 255 262 268 264 262 255 192 179 197 239 106 80 57 313 291 138 117 149 120 110 110 83 87
170 163 160 149 152 159 168 180 192 210 274 311 322 326 359 52 116 227 140 183 309 266 266 263 107 157 182 211 222 217 244 232 232 255 273 272 262 257 263 275 284 192 135 137 224 238 344 145 145 124 106 103 105 95
156 154 144 144 149 159 169 181 200 236 286 309 322 312 192 223 227 78 155 226 258 301 287 258 264 142 169 224 224 161 229 243 233 237 238 259 266 254 265 5 309 309 0 313 314 50 173 192 196 147 119 120 102 104
148 142 142 143 147 158 170 187 220 263 288 311 256 205 198 103 125 135 136 192 202 195 228 262 273 171 206 206 188 238 177 236 240 221 231 245 265 298 298 308 2 344 313 308 289 247 221 216 124 52 103 101 132 122
143 139 139 140 144 157 175 206 247 298 267 216 211 15 73 109 204 213 207 222 187 199 207 242 274 133 289 350 268 329 46 247 229 249 224 249 244 33 5 338 294 286 296 271 281 14 103 84 97 228 177 121 123 125
135 131 132 135 141 156 181 241 265 240 173 0 337 249 154 208 216 192 214 212 212 208 176 209 216 235 131 320 204 190 258 245 267 78 250 256 85 36 340 330 313 289 276 263 260 90 350 151 167 177 132 137 131 128
128 127 128 133 137 144 143 110 309 310 281 220 230 181 186 146 132 202 195 185 212 189 121 158 174 188 163 255 264 155 237 267 265 265 265 50 70 68 353 331 345 294 279 97 116 75 84 51 334 124 128 131 140 136
123 121 120 122 124 126 114 1 325 313 283 221 165 5 188 187 200 205 212 213 211 151 142 185 200 206 218 176 245 209 261 315 281 248 16 65 43 22 349 343 76 25 358 66 68 156 162 127 205 128 141 141 138 137
113 110 108 86 102 105 350 296 290 242 273 235 172 190 208 199 190 74 61 81 34 75 128 222 217 206 202 233 215 219 187 244 232 255 98 91 61 32 11 353 342 352 346 63 106 191 114 107 124 131 135 146 143 143
118 88 56 45 44 23 287 269 238 264 261 276 263 236 203 197 137 135 210 107 127 192 143 244 225 187 233 216 200 214 212 241 181 80 93 87 42 29 12 346 328 330 56 36 301 108 125 144 144 146 155 154 157 156
74 73 19 350 345 303 2 232 189 166 285 226 223 276 183 228 170 192 179 90 13 249 198 211 231 185 252 216 238 219 244 122 93 69 34 24 360 357 350 327 324 331 338 306 10 141 144 141 144 161 168 169 167 164
75 90 43 3 331 60 34 358 8 220 204 194 178 105 5 30 43 74 56 52 251 235 242 63 0 224 195 239 236 215 120 129 103 128 185 137 23 353 343 343 308 294 226 274 248 175 146 161 165 183 166 172 175 167
87 69 37 45 58 76 53 53 335 286 98 166 42 57 337 59 29 28 69 229 318 358 318 237 235 243 232 336 30 40 18 48 60 305 132 132 116 35 342 311 296 328 299 263 227 215 180 195 202 188 177 183 209 187
65 37 22 37 32 60 62 39 289 298 161 26 198 171 235 208 176 220 212 238 213 202 208 245 253 323 72 56 27 55 66 310 338 330 327 97 57 16 182 302 15 94 236 217 225 266 204 194 228 210 196 196 208 217
38 348 36 40 47 28 352 329 300 13 42 257 204 194 235 62 232 229 224 206 223 236 231 222 237 87 85 65 51 4 72 13 335 333 8 339 2 330 309 3 13 19 5 299 217 196 218 215 223 223 209 209 215 237
106 346 77 50 46 18 325 338 330 44 265 46 96 262 192 215 225 219 245 210 237 239 253 343 42 102 132 172 120 37 13 327 315 311 268 265 274 287 312 27 89 90 49 291 280 79 360 347 21 331 6 313 190 224
149 201 121 124 110 120 261 251 223 207 184 173 162 226 229 232 212 83 249 242 248 252 289 291 36 27 351 2 350 294 279 284 284 278 284 284 296 307 315 315 314 241 206 236 175 172 195 111 80 294 358 329 260 278
167 46 62 113 144 145 150 178 188 210 204 180 197 198 216 238 266 202 246 251 260 259 222 198 254 268 263 255 259 262 263 247 256 261 267 274 276 275 278 284 294 305 319 329 325 324 282 179 181 173 187 219 249 239
62 15 117 315 190 158 158 159 190 178 194 188 185 224 217 191 239 234 236 239 232 239 250 199 239 244 258 273 283 289 297 280 281 286 288 292 297 295 294 292 294 296 298 292 287 290 295 301 310 310 311 318 28 10
89 174 180 133 155 168 175 171 184 191 210 185 194 202 218 198 239 246 222 237 261 275 13 331 295 290 304 312 304 294 296 310 318 307 307 310 306 301 300 299 297 297 307 311 329 332 323 320 307 289 282 313 295 254
208 135 196 359 115 196 218 199 180 196 201 199 192 186 199 220 236 240 229 268 312 32 12 337 337 315 305 304 306 304 299 322 333 313 317 315 310 305 300 299 301 306 313 315 312 312 316 317 315 320 322 319 318 312
341 51 133 183 115 331 303 237 199 224 213 192 211 209 206 210 229 327 112 86 64 45 336 323 316 302 297 293 282 304 310 308 290 277 264 268 251 270 343 7 36 14 352 2 338 308 304 298 304 323 336 336 335 333
169 178 152 145 77 48 264 245 242 253 222 242 242 239 250 265 279 312 19 14 308 278 289 293 291 282 278 282 286 283 276 275 284 292 294 294 295 296 322 325 327 326 293 310 44 3 342 357 336 330 319 307 308 307
173 173 215 230 191 210 209 226 251 262 260 262 260 251 255 266 271 279 288 289 283 281 287 288 285 289 295 302 305 303 307 296 278 282 281 287 304 315 306 305 278 294 307 268 261 245 221 240 258 262 280 288 284 295
304 225 223 231 253 258 248 232 227 255 272 261 259 273 264 254 255 250 249 256 268 274 281 289 297 297 295 293 295 300 296 296 300 307 317 320 316 309 309 306 307 305 297 297 302 302 295 285 290 297 298 292 295 306
237 254 263 268 265 272 276 260 251 240 234 232 237 258 260 253 246 252 260 262 260 255 245 243 264 277 312 296 284 287 280 303 299 299 306 331 335 329 324 319 325 324 320 309 303 289 289 316 298 307 318 323 309 322
296 263 260 267 268 259 254 280 274 263 263 261 254 250 249 246 242 240 247 262 246 181 217 224 271 325 341 326 301 299 287 285 294 302 311 317 333 337 312 297 294 294 292 287 284 286 298 298 315 299 333 27 277 286